Location: Cadeilhan
(42.8161°N, 0.3161°E)
Time: 04:34:28
(UTC+00:00)

Lacrosse 5 - Pass Details

Date: 18 February 2020
Orbit: 715 x 724 km, 57.0° (Epoch: 21 March)

Event Time Altitude Azimuth Distance (km) Brightness Sun altitude
Exits shadow 03:47:39 27° 41° (NE) 1,364 3.7 -34.3°
Drops below altitude 10° 03:51:19 10° 86° (E) 2,207 5.2 -33.7°
Sets 03:54:00 0° 98° (E) 3,127 6.1 -33.2°
